Location: Maccacari
(45.1333°N, 11.1333°E)
Time: 15:16:40
(UTC+00:00)

S-56A Canister/Altair - Pass Details

Date: 24 January 2021
Orbit: 631 x 2501 km, 38.9° (Epoch: 01 March)

Event Time Altitude Azimuth Distance (km) Brightness Sun altitude
Rises 05:06:51 0° 266° (W) 2,952 - -17.0°
Reaches altitude 10° 05:09:08 10° 257° (WSW) 2,111 - -16.6°
Exits shadow 05:10:45 20° 243° (WSW) 1,596 8.7 -16.3°
Maximum altitude 05:13:27 36° 191° (S) 1,231 8.6 -15.9°
Drops below altitude 10° 05:19:03 10° 126° (SE) 2,742 11.4 -14.9°
Sets 05:22:24 0° 119° (ESE) 3,982 12.8 -14.3°
